Location: Newark
(39.6867°N, 100.6772°W)
Time: 19:25:14
(UTC+00:00)

Vanguard 1 Rocket - Pass Details

Date: 21 October 2019
Orbit: 651 x 4225 km, 34.3° (Epoch: 11 November)

Event Time Altitude Azimuth Distance (km) Brightness Sun altitude
Rises 13:58:19 0° 186° (S) 4,375 11.1 10.0°
Reaches altitude 10° 14:01:53 10° 169° (S) 3,865 11.2 10.6°
Maximum altitude 14:09:03 20° 126° (SE) 3,988 12.7 11.9°
Drops below altitude 10° 14:19:32 10° 88° (E) 5,932 12.8 13.7°
Sets 14:27:08 0° 75° (ENE) 7,613 12.9 15.0°
